contact:dominique.lefevre@mio.osupytheas.fr, maurice.libes@osupytheas.fr, didier.mallarino@osupytheas.fr
Project:EMSO http://www.emso-fr.org/EMSO-France
Depth: 2436.0 m
Title:EMSO Ligure Ouest : Data MII capteur CSTAR
DateTime,Latitude,Longitude,Instrument_Serial,Reference_Counts,Signal_Counts,Corrected_Signal_raw_counts,Calculated_Beam_c_inverse_meters,Internal_thermistor_counts
DateTime,Latitude,Longitude,Instrument_Serial,Reference_Counts,Signal_Counts,Corrected_Signal_raw_counts,Calculated_Beam_c_inverse_meters,Internal_thermistor_counts
2021-09-21T00:02:24,42.805,6.029,CST-1368DR,5207,7066,14532,0.288,551
2021-09-21T00:05:25,42.805,6.029,CST-1368DR,5207,7066,14532,0.288,551
2021-09-21T00:08:27,42.805,6.029,CST-1368DR,5207,7066,14531,0.288,551
2021-09-21T00:11:29,42.805,6.029,CST-1368DR,5207,7066,14531,0.288,551
2021-09-21T00:14:30,42.805,6.029,CST-1368DR,5207,7065,14530,0.288,551
2021-09-21T00:17:32,42.805,6.029,CST-1368DR,5207,7065,14530,0.288,551
2021-09-21T00:20:33,42.805,6.029,CST-1368DR,5207,7066,14532,0.288,551
2021-09-21T00:23:35,42.805,6.029,CST-1368DR,5207,7065,14529,0.289,550
2021-09-21T00:26:36,42.805,6.029,CST-1368DR,5207,7066,14532,0.288,551
2021-09-21T00:29:38,42.805,6.029,CST-1368DR,5207,7066,14531,0.288,551
2021-09-21T00:32:40,42.805,6.029,CST-1368DR,5207,7067,14533,0.287,551
2021-09-21T00:35:41,42.805,6.029,CST-1368DR,5207,7066,14532,0.288,551
2021-09-21T00:38:43,42.805,6.029,CST-1368DR,5207,7066,14531,0.288,551
2021-09-21T00:41:44,42.805,6.029,CST-1368DR,5207,7066,14532,0.288,551
2021-09-21T00:44:46,42.805,6.029,CST-1368DR,5207,7065,14530,0.288,551
2021-09-21T00:47:48,42.805,6.029,CST-1368DR,5207,7066,14532,0.288,551
2021-09-21T00:50:49,42.805,6.029,CST-1368DR,5207,7066,14532,0.288,551
2021-09-21T00:53:51,42.805,6.029,CST-1368DR,5207,7065,14530,0.288,551
2021-09-21T00:56:52,42.805,6.029,CST-1368DR,5207,7066,14531,0.288,551
2021-09-21T00:59:54,42.805,6.029,CST-1368DR,5207,7066,14532,0.288,551
2021-09-21T01:02:55,42.805,6.029,CST-1368DR,5207,7066,14531,0.288,551
2021-09-21T01:05:57,42.805,6.029,CST-1368DR,5207,7066,14531,0.288,551
2021-09-21T01:08:59,42.805,6.029,CST-1368DR,5207,7067,14534,0.287,551
2021-09-21T01:12:00,42.805,6.029,CST-1368DR,5207,7066,14532,0.288,551
2021-09-21T01:15:02,42.805,6.029,CST-1368DR,5207,7066,14531,0.288,551
2021-09-21T01:18:03,42.805,6.029,CST-1368DR,5207,7065,14530,0.288,551
2021-09-21T01:21:05,42.805,6.029,CST-1368DR,5207,7065,14530,0.288,551
2021-09-21T01:24:06,42.805,6.029,CST-1368DR,5207,7066,14532,0.288,551
2021-09-21T01:27:08,42.805,6.029,CST-1368DR,5207,7066,14531,0.288,551
2021-09-21T01:30:10,42.805,6.029,CST-1368DR,5207,7066,14531,0.288,551
2021-09-21T01:33:11,42.805,6.029,CST-1368DR,5207,7066,14531,0.288,551
2021-09-21T01:36:13,42.805,6.029,CST-1368DR,5207,7066,14531,0.288,551
2021-09-21T01:39:14,42.805,6.029,CST-1368DR,5207,7066,14531,0.288,551
2021-09-21T01:42:16,42.805,6.029,CST-1368DR,5207,7066,14531,0.288,551
2021-09-21T01:45:18,42.805,6.029,CST-1368DR,5207,7066,14531,0.288,551
2021-09-21T01:48:19,42.805,6.029,CST-1368DR,5207,7065,14529,0.289,551
2021-09-21T01:51:21,42.805,6.029,CST-1368DR,5207,7065,14530,0.288,551
2021-09-21T01:54:22,42.805,6.029,CST-1368DR,5207,7065,14530,0.288,551
2021-09-21T01:57:24,42.805,6.029,CST-1368DR,5207,7066,14531,0.288,551
2021-09-21T02:00:25,42.805,6.029,CST-1368DR,5207,7065,14530,0.288,551
2021-09-21T02:03:27,42.805,6.029,CST-1368DR,5207,7066,14532,0.288,551
2021-09-21T02:06:29,42.805,6.029,CST-1368DR,5207,7064,14528,0.289,551
2021-09-21T02:09:30,42.805,6.029,CST-1368DR,5207,7065,14530,0.288,551
2021-09-21T02:12:32,42.805,6.029,CST-1368DR,5207,7066,14531,0.288,551
2021-09-21T02:15:33,42.805,6.029,CST-1368DR,5207,7065,14530,0.288,551
2021-09-21T02:18:35,42.805,6.029,CST-1368DR,5207,7065,14530,0.288,551
2021-09-21T02:21:37,42.805,6.029,CST-1368DR,5207,7065,14530,0.288,551
2021-09-21T02:24:38,42.805,6.029,CST-1368DR,5207,7065,14530,0.288,551
2021-09-21T02:27:40,42.805,6.029,CST-1368DR,5207,7065,14530,0.288,551
2021-09-21T02:30:41,42.805,6.029,CST-1368DR,5207,7064,14528,0.289,551
2021-09-21T02:33:43,42.805,6.029,CST-1368DR,5207,7065,14530,0.288,551
2021-09-21T02:36:44,42.805,6.029,CST-1368DR,5207,7066,14531,0.288,551
2021-09-21T02:39:46,42.805,6.029,CST-1368DR,5207,7066,14531,0.288,551
2021-09-21T02:42:48,42.805,6.029,CST-1368DR,5207,7063,14526,0.289,551
2021-09-21T02:45:49,42.805,6.029,CST-1368DR,5207,7066,14531,0.288,551
2021-09-21T02:48:51,42.805,6.029,CST-1368DR,5207,7065,14530,0.288,551
2021-09-21T02:51:52,42.805,6.029,CST-1368DR,5207,7065,14529,0.289,551
2021-09-21T02:54:54,42.805,6.029,CST-1368DR,5207,7065,14530,0.288,551
2021-09-21T02:57:55,42.805,6.029,CST-1368DR,5207,7065,14530,0.288,551
2021-09-21T03:00:57,42.805,6.029,CST-1368DR,5207,7066,14531,0.288,551
2021-09-21T03:03:59,42.805,6.029,CST-1368DR,5207,7065,14530,0.288,551
2021-09-21T03:07:00,42.805,6.029,CST-1368DR,5207,7065,14529,0.289,551
2021-09-21T03:10:02,42.805,6.029,CST-1368DR,5207,7065,14530,0.288,551
2021-09-21T03:13:03,42.805,6.029,CST-1368DR,5207,7063,14525,0.290,551
2021-09-21T03:16:05,42.805,6.029,CST-1368DR,5207,7065,14530,0.288,551
2021-09-21T03:19:07,42.805,6.029,CST-1368DR,5207,7065,14529,0.289,551
2021-09-21T03:22:08,42.805,6.029,CST-1368DR,5207,7064,14528,0.289,551
2021-09-21T03:25:10,42.805,6.029,CST-1368DR,5207,7065,14530,0.288,551
2021-09-21T03:28:11,42.805,6.029,CST-1368DR,5207,7065,14530,0.288,551
2021-09-21T03:31:13,42.805,6.029,CST-1368DR,5207,7065,14529,0.289,551
2021-09-21T03:34:14,42.805,6.029,CST-1368DR,5207,7065,14530,0.288,551
2021-09-21T03:37:16,42.805,6.029,CST-1368DR,5207,7065,14529,0.289,551
2021-09-21T03:40:18,42.805,6.029,CST-1368DR,5207,7065,14529,0.289,551
2021-09-21T03:43:19,42.805,6.029,CST-1368DR,5207,7064,14528,0.289,551
2021-09-21T03:46:21,42.805,6.029,CST-1368DR,5207,7065,14529,0.289,551
2021-09-21T03:49:22,42.805,6.029,CST-1368DR,5207,7065,14530,0.288,551
2021-09-21T03:52:24,42.805,6.029,CST-1368DR,5207,7066,14531,0.288,551
2021-09-21T03:55:25,42.805,6.029,CST-1368DR,5207,7065,14530,0.288,551
2021-09-21T03:58:27,42.805,6.029,CST-1368DR,5207,7065,14530,0.288,551
2021-09-21T04:01:29,42.805,6.029,CST-1368DR,5207,7065,14530,0.288,551
2021-09-21T04:04:30,42.805,6.029,CST-1368DR,5207,7065,14530,0.288,551
2021-09-21T04:07:32,42.805,6.029,CST-1368DR,5207,7064,14528,0.289,551
2021-09-21T04:10:33,42.805,6.029,CST-1368DR,5207,7064,14528,0.289,551
2021-09-21T04:13:35,42.805,6.029,CST-1368DR,5207,7065,14529,0.289,551
2021-09-21T04:16:37,42.805,6.029,CST-1368DR,5207,7065,14529,0.289,551
2021-09-21T04:19:38,42.805,6.029,CST-1368DR,5207,7065,14530,0.288,551
2021-09-21T04:22:40,42.805,6.029,CST-1368DR,5207,7065,14530,0.288,551
2021-09-21T04:25:41,42.805,6.029,CST-1368DR,5207,7065,14530,0.288,551
2021-09-21T04:28:43,42.805,6.029,CST-1368DR,5207,7065,14529,0.289,551
2021-09-21T04:31:44,42.805,6.029,CST-1368DR,5207,7064,14528,0.289,551
2021-09-21T04:34:46,42.805,6.029,CST-1368DR,5206,7064,14531,0.288,551
2021-09-21T04:37:48,42.805,6.029,CST-1368DR,5206,7065,14532,0.288,551
2021-09-21T04:40:49,42.805,6.029,CST-1368DR,5206,7065,14532,0.288,551
2021-09-21T04:43:51,42.805,6.029,CST-1368DR,5207,7064,14527,0.289,551
2021-09-21T04:46:52,42.805,6.029,CST-1368DR,5207,7065,14530,0.288,551
2021-09-21T04:49:54,42.805,6.029,CST-1368DR,5206,7064,14531,0.288,551
2021-09-21T04:52:56,42.805,6.029,CST-1368DR,5207,7064,14528,0.289,551
2021-09-21T04:55:57,42.805,6.029,CST-1368DR,5207,7064,14528,0.289,551
2021-09-21T04:58:59,42.805,6.029,CST-1368DR,5207,7065,14529,0.289,551
2021-09-21T05:02:00,42.805,6.029,CST-1368DR,5207,7065,14530,0.288,551
2021-09-21T05:05:02,42.805,6.029,CST-1368DR,5206,7065,14532,0.288,551
2021-09-21T05:08:03,42.805,6.029,CST-1368DR,5206,7064,14530,0.288,551
2021-09-21T05:11:05,42.805,6.029,CST-1368DR,5206,7065,14533,0.287,551
2021-09-21T05:14:07,42.805,6.029,CST-1368DR,5206,7065,14532,0.288,550
2021-09-21T05:17:08,42.805,6.029,CST-1368DR,5206,7065,14532,0.288,551
2021-09-21T05:20:10,42.805,6.029,CST-1368DR,5206,7064,14530,0.288,551
2021-09-21T05:23:11,42.805,6.029,CST-1368DR,5206,7063,14528,0.289,551
2021-09-21T05:26:13,42.805,6.029,CST-1368DR,5206,7059,14520,0.291,551
2021-09-21T05:29:15,42.805,6.029,CST-1368DR,5206,7063,14528,0.289,551
2021-09-21T05:32:16,42.805,6.029,CST-1368DR,5206,7063,14528,0.289,551
2021-09-21T05:35:18,42.805,6.029,CST-1368DR,5206,7063,14527,0.289,551
2021-09-21T05:38:19,42.805,6.029,CST-1368DR,5207,7062,14523,0.290,551
2021-09-21T05:41:21,42.805,6.029,CST-1368DR,5206,7062,14525,0.290,551
2021-09-21T05:44:22,42.805,6.029,CST-1368DR,5206,7063,14528,0.289,551
2021-09-21T05:47:24,42.805,6.029,CST-1368DR,5206,7062,14527,0.289,551
2021-09-21T05:50:26,42.805,6.029,CST-1368DR,5206,7062,14526,0.289,551
2021-09-21T05:53:27,42.805,6.029,CST-1368DR,5206,7062,14526,0.289,550
2021-09-21T05:56:29,42.805,6.029,CST-1368DR,5206,7060,14522,0.291,551
2021-09-21T05:59:30,42.805,6.029,CST-1368DR,5206,7063,14528,0.289,551
2021-09-21T06:02:32,42.805,6.029,CST-1368DR,5206,7062,14527,0.289,551
2021-09-21T06:05:33,42.805,6.029,CST-1368DR,5206,7062,14527,0.289,551
2021-09-21T06:08:35,42.805,6.029,CST-1368DR,5206,7062,14526,0.289,551
2021-09-21T06:11:37,42.805,6.029,CST-1368DR,5206,7062,14526,0.289,551
2021-09-21T06:14:38,42.805,6.029,CST-1368DR,5206,7062,14526,0.289,551
2021-09-21T06:17:40,42.805,6.029,CST-1368DR,5206,7063,14528,0.289,551
2021-09-21T06:20:41,42.805,6.029,CST-1368DR,5206,7062,14526,0.289,551
2021-09-21T06:23:43,42.805,6.029,CST-1368DR,5206,7062,14527,0.289,551
2021-09-21T06:26:45,42.805,6.029,CST-1368DR,5206,7063,14528,0.289,551
2021-09-21T06:29:46,42.805,6.029,CST-1368DR,5206,7062,14526,0.289,551
2021-09-21T06:32:48,42.805,6.029,CST-1368DR,5206,7062,14525,0.290,551
2021-09-21T06:35:49,42.805,6.029,CST-1368DR,5206,7062,14526,0.289,551
2021-09-21T06:38:51,42.805,6.029,CST-1368DR,5206,7062,14526,0.289,551
2021-09-21T06:41:52,42.805,6.029,CST-1368DR,5206,7062,14526,0.289,551
2021-09-21T06:44:54,42.805,6.029,CST-1368DR,5206,7062,14526,0.289,551
2021-09-21T06:47:56,42.805,6.029,CST-1368DR,5206,7062,14527,0.289,551
2021-09-21T06:50:57,42.805,6.029,CST-1368DR,5206,7062,14526,0.289,551
2021-09-21T06:53:59,42.805,6.029,CST-1368DR,5206,7063,14527,0.289,551
2021-09-21T06:57:00,42.805,6.029,CST-1368DR,5206,7062,14526,0.289,551
2021-09-21T07:00:02,42.805,6.029,CST-1368DR,5206,7062,14527,0.289,551
2021-09-21T07:03:04,42.805,6.029,CST-1368DR,5206,7062,14526,0.289,551
2021-09-21T07:06:05,42.805,6.029,CST-1368DR,5206,7062,14527,0.289,551
2021-09-21T07:09:07,42.805,6.029,CST-1368DR,5206,7062,14526,0.289,551
2021-09-21T07:12:08,42.805,6.029,CST-1368DR,5206,7062,14527,0.289,551
2021-09-21T07:15:10,42.805,6.029,CST-1368DR,5206,7062,14527,0.289,551
2021-09-21T07:18:11,42.805,6.029,CST-1368DR,5206,7061,14525,0.290,551
2021-09-21T07:21:13,42.805,6.029,CST-1368DR,5206,7062,14527,0.289,551
2021-09-21T07:24:15,42.805,6.029,CST-1368DR,5206,7061,14525,0.290,551
2021-09-21T07:27:16,42.805,6.029,CST-1368DR,5206,7062,14525,0.290,551
2021-09-21T07:30:18,42.805,6.029,CST-1368DR,5206,7061,14524,0.290,551
2021-09-21T07:33:19,42.805,6.029,CST-1368DR,5206,7062,14525,0.290,551
2021-09-21T07:36:21,42.805,6.029,CST-1368DR,5206,7062,14525,0.290,551
2021-09-21T07:39:22,42.805,6.029,CST-1368DR,5206,7062,14527,0.289,551
2021-09-21T07:42:24,42.805,6.029,CST-1368DR,5206,7062,14526,0.289,551
2021-09-21T07:45:26,42.805,6.029,CST-1368DR,5206,7061,14524,0.290,551
2021-09-21T07:48:27,42.805,6.029,CST-1368DR,5206,7061,14525,0.290,551
2021-09-21T07:51:29,42.805,6.029,CST-1368DR,5206,7062,14525,0.290,551
2021-09-21T07:54:30,42.805,6.029,CST-1368DR,5206,7061,14525,0.290,551
2021-09-21T07:57:32,42.805,6.029,CST-1368DR,5206,7061,14524,0.290,551
2021-09-21T08:00:34,42.805,6.029,CST-1368DR,5206,7062,14525,0.290,551
2021-09-21T08:03:35,42.805,6.029,CST-1368DR,5206,7062,14526,0.289,551
2021-09-21T08:06:37,42.805,6.029,CST-1368DR,5206,7062,14526,0.289,551
2021-09-21T08:09:38,42.805,6.029,CST-1368DR,5206,7062,14525,0.290,551
2021-09-21T08:12:40,42.805,6.029,CST-1368DR,5206,7062,14526,0.289,551
2021-09-21T08:15:41,42.805,6.029,CST-1368DR,5206,7061,14525,0.290,551
2021-09-21T08:18:43,42.805,6.029,CST-1368DR,5206,7062,14525,0.290,551
2021-09-21T08:21:45,42.805,6.029,CST-1368DR,5206,7061,14524,0.290,551
2021-09-21T08:24:46,42.805,6.029,CST-1368DR,5206,7061,14524,0.290,551
2021-09-21T08:27:48,42.805,6.029,CST-1368DR,5206,7061,14523,0.290,551
2021-09-21T08:30:49,42.805,6.029,CST-1368DR,5206,7061,14524,0.290,551
2021-09-21T08:33:51,42.805,6.029,CST-1368DR,5206,7060,14523,0.290,551
2021-09-21T08:36:53,42.805,6.029,CST-1368DR,5206,7060,14523,0.290,551
2021-09-21T08:39:54,42.805,6.029,CST-1368DR,5206,7061,14525,0.290,551
2021-09-21T08:42:56,42.805,6.029,CST-1368DR,5206,7061,14524,0.290,551
2021-09-21T08:45:57,42.805,6.029,CST-1368DR,5206,7061,14524,0.290,551
2021-09-21T08:48:59,42.805,6.029,CST-1368DR,5206,7062,14525,0.290,551
2021-09-21T08:52:00,42.805,6.029,CST-1368DR,5206,7061,14524,0.290,551
2021-09-21T08:55:02,42.805,6.029,CST-1368DR,5206,7061,14524,0.290,551
2021-09-21T08:58:04,42.805,6.029,CST-1368DR,5206,7062,14525,0.290,551
2021-09-21T09:01:05,42.805,6.029,CST-1368DR,5206,7062,14525,0.290,551
2021-09-21T09:04:07,42.805,6.029,CST-1368DR,5206,7059,14519,0.291,551
2021-09-21T09:07:08,42.805,6.029,CST-1368DR,5206,7061,14523,0.290,551
2021-09-21T09:10:10,42.805,6.029,CST-1368DR,5206,7061,14525,0.290,551
2021-09-21T09:13:11,42.805,6.029,CST-1368DR,5206,7061,14524,0.290,551
2021-09-21T09:16:13,42.805,6.029,CST-1368DR,5206,7061,14525,0.290,551
2021-09-21T09:19:15,42.805,6.029,CST-1368DR,5206,7061,14525,0.290,551
2021-09-21T09:22:16,42.805,6.029,CST-1368DR,5206,7061,14524,0.290,551
2021-09-21T09:25:18,42.805,6.029,CST-1368DR,5206,7061,14523,0.290,551
2021-09-21T09:28:19,42.805,6.029,CST-1368DR,5206,7061,14525,0.290,551
2021-09-21T09:31:21,42.805,6.029,CST-1368DR,5206,7061,14525,0.290,551
2021-09-21T09:34:23,42.805,6.029,CST-1368DR,5206,7062,14525,0.290,550
2021-09-21T09:37:24,42.805,6.029,CST-1368DR,5206,7062,14525,0.290,551
2021-09-21T09:40:26,42.805,6.029,CST-1368DR,5206,7060,14521,0.291,551
2021-09-21T09:43:27,42.805,6.029,CST-1368DR,5206,7061,14525,0.290,551
2021-09-21T09:46:29,42.805,6.029,CST-1368DR,5206,7060,14523,0.290,551
2021-09-21T09:49:30,42.805,6.029,CST-1368DR,5206,7061,14524,0.290,551
2021-09-21T09:52:32,42.805,6.029,CST-1368DR,5206,7060,14523,0.290,551
2021-09-21T09:55:34,42.805,6.029,CST-1368DR,5206,7058,14519,0.291,551
2021-09-21T09:58:35,42.805,6.029,CST-1368DR,5206,7053,14507,0.295,551
2021-09-21T10:01:37,42.805,6.029,CST-1368DR,5206,7059,14521,0.291,551
2021-09-21T10:04:38,42.805,6.029,CST-1368DR,5206,7060,14522,0.291,551
2021-09-21T10:07:40,42.805,6.029,CST-1368DR,5206,7061,14523,0.290,551
2021-09-21T10:10:42,42.805,6.029,CST-1368DR,5206,7058,14517,0.292,551
2021-09-21T10:13:43,42.805,6.029,CST-1368DR,5206,7060,14523,0.290,551
2021-09-21T10:16:45,42.805,6.029,CST-1368DR,5206,7061,14523,0.290,551
2021-09-21T10:19:46,42.805,6.029,CST-1368DR,5206,7060,14522,0.291,551
2021-09-21T10:22:48,42.805,6.029,CST-1368DR,5206,7060,14523,0.290,551
2021-09-21T10:25:49,42.805,6.029,CST-1368DR,5206,7061,14524,0.290,551
2021-09-21T10:28:51,42.805,6.029,CST-1368DR,5206,7061,14524,0.290,551
2021-09-21T10:31:53,42.805,6.029,CST-1368DR,5206,7060,14522,0.291,551
2021-09-21T10:34:54,42.805,6.029,CST-1368DR,5206,7060,14521,0.291,551
2021-09-21T10:37:56,42.805,6.029,CST-1368DR,5206,7061,14525,0.290,551
2021-09-21T10:40:57,42.805,6.029,CST-1368DR,5206,7061,14524,0.290,551
2021-09-21T10:43:59,42.805,6.029,CST-1368DR,5206,7061,14523,0.290,551
2021-09-21T10:47:00,42.805,6.029,CST-1368DR,5206,7059,14521,0.291,551
2021-09-21T10:50:02,42.805,6.029,CST-1368DR,5206,7061,14523,0.290,551
2021-09-21T10:53:04,42.805,6.029,CST-1368DR,5206,7061,14523,0.290,551
2021-09-21T10:56:05,42.805,6.029,CST-1368DR,5206,7061,14524,0.290,551
2021-09-21T10:59:07,42.805,6.029,CST-1368DR,5206,7061,14523,0.290,551
2021-09-21T11:02:08,42.805,6.029,CST-1368DR,5206,7060,14521,0.291,551
2021-09-21T11:05:10,42.805,6.029,CST-1368DR,5206,7059,14521,0.291,551
2021-09-21T11:08:12,42.805,6.029,CST-1368DR,5206,7060,14521,0.291,551
2021-09-21T11:11:13,42.805,6.029,CST-1368DR,5206,7060,14522,0.291,551
2021-09-21T11:14:15,42.805,6.029,CST-1368DR,5206,7060,14523,0.290,551
2021-09-21T11:17:16,42.805,6.029,CST-1368DR,5206,7060,14523,0.290,551
2021-09-21T11:20:18,42.805,6.029,CST-1368DR,5206,7059,14520,0.291,551
2021-09-21T11:23:19,42.805,6.029,CST-1368DR,5206,7060,14523,0.290,551
2021-09-21T11:26:21,42.805,6.029,CST-1368DR,5206,7060,14522,0.291,551
2021-09-21T11:29:23,42.805,6.029,CST-1368DR,5206,7060,14523,0.290,551
2021-09-21T11:32:24,42.805,6.029,CST-1368DR,5206,7061,14523,0.290,551
2021-09-21T11:35:26,42.805,6.029,CST-1368DR,5206,7060,14523,0.290,551
2021-09-21T11:38:27,42.805,6.029,CST-1368DR,5206,7061,14523,0.290,551
2021-09-21T11:41:29,42.805,6.029,CST-1368DR,5206,7060,14522,0.291,551
2021-09-21T11:44:30,42.805,6.029,CST-1368DR,5206,7061,14523,0.290,551
2021-09-21T11:47:32,42.805,6.029,CST-1368DR,5206,7060,14523,0.290,551
2021-09-21T11:50:34,42.805,6.029,CST-1368DR,5206,7060,14522,0.291,551
2021-09-21T11:53:35,42.805,6.029,CST-1368DR,5206,7060,14522,0.291,551
2021-09-21T11:56:37,42.805,6.029,CST-1368DR,5206,7060,14521,0.291,551
2021-09-21T11:59:38,42.805,6.029,CST-1368DR,5206,7060,14523,0.290,551
2021-09-21T12:02:40,42.805,6.029,CST-1368DR,5206,7059,14521,0.291,551
2021-09-21T12:05:42,42.805,6.029,CST-1368DR,5206,7060,14523,0.290,551
2021-09-21T12:08:43,42.805,6.029,CST-1368DR,5206,7060,14523,0.290,551
2021-09-21T12:11:45,42.805,6.029,CST-1368DR,5206,7061,14523,0.290,551
2021-09-21T12:14:46,42.805,6.029,CST-1368DR,5206,7060,14522,0.291,551
2021-09-21T12:17:48,42.805,6.029,CST-1368DR,5206,7058,14519,0.291,551
2021-09-21T12:20:49,42.805,6.029,CST-1368DR,5206,7060,14522,0.291,551
2021-09-21T12:23:51,42.805,6.029,CST-1368DR,5206,7059,14519,0.291,551
2021-09-21T12:26:53,42.805,6.029,CST-1368DR,5206,7058,14517,0.292,551
2021-09-21T12:29:54,42.805,6.029,CST-1368DR,5206,7060,14522,0.291,551
2021-09-21T12:32:56,42.805,6.029,CST-1368DR,5206,7056,14515,0.292,551
2021-09-21T12:35:57,42.805,6.029,CST-1368DR,5206,7060,14523,0.290,551
2021-09-21T12:38:59,42.805,6.029,CST-1368DR,5206,7061,14523,0.290,551
2021-09-21T12:42:00,42.805,6.029,CST-1368DR,5206,7059,14521,0.291,551
2021-09-21T12:45:02,42.805,6.029,CST-1368DR,5206,7060,14521,0.291,551
2021-09-21T12:48:04,42.805,6.029,CST-1368DR,5206,7061,14523,0.290,551
2021-09-21T12:51:05,42.805,6.029,CST-1368DR,5206,7059,14521,0.291,551
2021-09-21T12:54:07,42.805,6.029,CST-1368DR,5206,7058,14519,0.291,551
2021-09-21T12:57:08,42.805,6.029,CST-1368DR,5206,7060,14523,0.290,551
2021-09-21T13:00:10,42.805,6.029,CST-1368DR,5206,7060,14521,0.291,551
2021-09-21T13:03:12,42.805,6.029,CST-1368DR,5206,7060,14522,0.291,550
2021-09-21T13:06:13,42.805,6.029,CST-1368DR,5206,7059,14520,0.291,551
2021-09-21T13:09:15,42.805,6.029,CST-1368DR,5206,7060,14523,0.290,551
2021-09-21T13:12:16,42.805,6.029,CST-1368DR,5206,7059,14520,0.291,551
2021-09-21T13:15:18,42.805,6.029,CST-1368DR,5206,7060,14522,0.291,551
2021-09-21T13:18:19,42.805,6.029,CST-1368DR,5206,7060,14523,0.290,551
2021-09-21T13:21:21,42.805,6.029,CST-1368DR,5206,7060,14521,0.291,551
2021-09-21T13:24:23,42.805,6.029,CST-1368DR,5205,7060,14525,0.290,551
2021-09-21T13:27:24,42.805,6.029,CST-1368DR,5206,7059,14520,0.291,551
2021-09-21T13:30:26,42.805,6.029,CST-1368DR,5206,7055,14512,0.293,551
2021-09-21T13:33:27,42.805,6.029,CST-1368DR,5206,7060,14522,0.291,551
2021-09-21T13:36:29,42.805,6.029,CST-1368DR,5205,7058,14521,0.291,551
2021-09-21T13:39:31,42.805,6.029,CST-1368DR,5206,7059,14519,0.291,551
2021-09-21T13:42:32,42.805,6.029,CST-1368DR,5206,7059,14520,0.291,551
2021-09-21T13:45:34,42.805,6.029,CST-1368DR,5205,7058,14521,0.291,551
2021-09-21T13:48:35,42.805,6.029,CST-1368DR,5205,7060,14524,0.290,551
2021-09-21T13:51:37,42.805,6.029,CST-1368DR,5205,7059,14522,0.291,551
2021-09-21T13:54:38,42.805,6.029,CST-1368DR,5205,7058,14521,0.291,551
2021-09-21T13:57:40,42.805,6.029,CST-1368DR,5205,7058,14521,0.291,551
2021-09-21T14:00:42,42.805,6.029,CST-1368DR,5205,7059,14522,0.291,551
2021-09-21T14:03:43,42.805,6.029,CST-1368DR,5205,7059,14522,0.291,551
2021-09-21T14:06:45,42.805,6.029,CST-1368DR,5205,7058,14520,0.291,551
2021-09-21T14:09:46,42.805,6.029,CST-1368DR,5205,7058,14521,0.291,551
2021-09-21T14:12:48,42.805,6.029,CST-1368DR,5205,7059,14523,0.290,551
2021-09-21T14:15:49,42.805,6.029,CST-1368DR,5205,7059,14522,0.291,551
2021-09-21T14:18:51,42.805,6.029,CST-1368DR,5205,7059,14522,0.291,551
2021-09-21T14:21:53,42.805,6.029,CST-1368DR,5205,7056,14517,0.292,551
2021-09-21T14:24:54,42.805,6.029,CST-1368DR,5205,7058,14520,0.291,551
2021-09-21T14:27:56,42.805,6.029,CST-1368DR,5205,7058,14520,0.291,551
2021-09-21T14:30:57,42.805,6.029,CST-1368DR,5205,7059,14522,0.291,551
2021-09-21T14:33:59,42.805,6.029,CST-1368DR,5205,7058,14520,0.291,551
2021-09-21T14:37:01,42.805,6.029,CST-1368DR,5205,7058,14520,0.291,551
2021-09-21T14:40:02,42.805,6.029,CST-1368DR,5205,7059,14522,0.291,551
2021-09-21T14:43:04,42.805,6.029,CST-1368DR,5205,7059,14522,0.291,551
2021-09-21T14:46:05,42.805,6.029,CST-1368DR,5205,7058,14520,0.291,551
2021-09-21T14:49:07,42.805,6.029,CST-1368DR,5205,7059,14523,0.290,551
2021-09-21T14:52:08,42.805,6.029,CST-1368DR,5205,7059,14523,0.290,551
2021-09-21T14:55:10,42.805,6.029,CST-1368DR,5205,7059,14522,0.291,551
2021-09-21T14:58:12,42.805,6.029,CST-1368DR,5205,7059,14523,0.290,551
2021-09-21T15:01:13,42.805,6.029,CST-1368DR,5205,7059,14523,0.290,551
2021-09-21T15:04:15,42.805,6.029,CST-1368DR,5205,7059,14523,0.290,551
2021-09-21T15:07:16,42.805,6.029,CST-1368DR,5205,7059,14522,0.291,551
2021-09-21T15:10:18,42.805,6.029,CST-1368DR,5205,7059,14522,0.291,551
2021-09-21T15:13:20,42.805,6.029,CST-1368DR,5205,7058,14521,0.291,550
2021-09-21T15:16:21,42.805,6.029,CST-1368DR,5205,7059,14523,0.290,551
2021-09-21T15:19:23,42.805,6.029,CST-1368DR,5205,7059,14522,0.291,551
2021-09-21T15:22:24,42.805,6.029,CST-1368DR,5205,7059,14522,0.291,551
2021-09-21T15:25:26,42.805,6.029,CST-1368DR,5205,7059,14522,0.291,551
2021-09-21T15:28:27,42.805,6.029,CST-1368DR,5205,7058,14521,0.291,551
2021-09-21T15:31:29,42.805,6.029,CST-1368DR,5205,7059,14523,0.290,551
2021-09-21T15:34:31,42.805,6.029,CST-1368DR,5205,7060,14524,0.290,551
2021-09-21T15:37:32,42.805,6.029,CST-1368DR,5205,7060,14524,0.290,551
2021-09-21T15:40:34,42.805,6.029,CST-1368DR,5205,7058,14520,0.291,551
2021-09-21T15:43:35,42.805,6.029,CST-1368DR,5205,7059,14523,0.290,551
2021-09-21T15:46:37,42.805,6.029,CST-1368DR,5205,7060,14524,0.290,551
2021-09-21T15:49:38,42.805,6.029,CST-1368DR,5205,7059,14523,0.290,551
2021-09-21T15:52:40,42.805,6.029,CST-1368DR,5205,7059,14522,0.291,551
2021-09-21T15:55:42,42.805,6.029,CST-1368DR,5205,7059,14523,0.290,551
2021-09-21T15:58:43,42.805,6.029,CST-1368DR,5205,7059,14523,0.290,551
2021-09-21T16:01:45,42.805,6.029,CST-1368DR,5205,7058,14521,0.291,551
2021-09-21T16:04:46,42.805,6.029,CST-1368DR,5205,7059,14523,0.290,551
2021-09-21T16:07:48,42.805,6.029,CST-1368DR,5205,7059,14522,0.291,551
2021-09-21T16:10:50,42.805,6.029,CST-1368DR,5205,7059,14522,0.291,551
2021-09-21T16:13:51,42.805,6.029,CST-1368DR,5205,7060,14524,0.290,551
2021-09-21T16:16:53,42.805,6.029,CST-1368DR,5205,7059,14522,0.291,551
2021-09-21T16:19:54,42.805,6.029,CST-1368DR,5205,7060,14525,0.290,551
2021-09-21T16:22:56,42.805,6.029,CST-1368DR,5205,7060,14525,0.290,551
2021-09-21T16:25:57,42.805,6.029,CST-1368DR,5205,7060,14524,0.290,551
2021-09-21T16:28:59,42.805,6.029,CST-1368DR,5205,7059,14522,0.291,551
2021-09-21T16:32:01,42.805,6.029,CST-1368DR,5205,7059,14522,0.291,551
2021-09-21T16:35:02,42.805,6.029,CST-1368DR,5205,7059,14523,0.290,551
2021-09-21T16:38:04,42.805,6.029,CST-1368DR,5205,7059,14522,0.291,551
2021-09-21T16:41:05,42.805,6.029,CST-1368DR,5205,7059,14523,0.290,551
2021-09-21T16:44:07,42.805,6.029,CST-1368DR,5205,7059,14523,0.290,551
2021-09-21T16:47:08,42.805,6.029,CST-1368DR,5205,7059,14522,0.291,551
2021-09-21T16:50:10,42.805,6.029,CST-1368DR,5205,7059,14522,0.291,551
2021-09-21T16:53:12,42.805,6.029,CST-1368DR,5205,7055,14515,0.292,551